Regional Weather Roundup
Issued by NWS Sioux Falls, SD

Home | Current Version | Previous Version | Graphics & Text | Print | Product List | Glossary Off
Versions: 1 2 3 4 5 6 7 8 9 10 11 12 13 14 15 16 17 18 19 20 21 22 23 24 25 26 27 28 29 30 31 32 33 34 35 36 37 38 39 40 41 42 43 44 45 46 47 48 49 50

000
ASUS43 KFSD 281602
RWRFSD

WEATHER ROUNDUP FOR SE SOUTH DAKOTA/SW MINNESOTA/NW IOWA
NATIONAL WEATHER SERVICE SIOUX FALLS SD
1100 AM CDT FRI AUG 28 2015

NOTE: "FAIR" INDICATES FEW OR NO CLOUDS BELOW 12,000 FEET WITH NO
SIGNIFICANT WEATHER AND OR OBSTRUCTIONS TO VISIBILITY.


SDZ038>040-050-052>070-281700-
SOUTHEAST SOUTH DAKOTA

CITY           SKY/WX    TMP DP  RH WIND       PRES   REMARKS
BROOKINGS      CLOUDY    70  63  78 SE10      29.98S
CHAMBERLAIN    CLOUDY    68  65  91 E6        29.97R
HURON          CLOUDY    72  65  78 SE6       29.95R
MADISON        CLOUDY    68  68 100 E12       29.96S
MITCHELL       CLOUDY    70  65  84 E7        29.95R
SIOUX FALLS    CLOUDY    68  65  90 NE15      29.94R
WINNER         CLOUDY    69  65  86 NE8       29.99R
YANKTON        CLOUDY    64  63  94 NE12      29.90R
$$

MNZ071-072-080-081-089-090-097-098-281700-
SOUTHWEST MINNESOTA

CITY           SKY/WX    TMP DP  RH WIND       PRES   REMARKS
FAIRMONT       CLOUDY    64  59  82 E13       29.97S
JACKSON        CLOUDY    64  63  94 E21G28    29.97S FOG
LUVERNE        CLOUDY    70  63  78 E13G22    29.95R
MARSHALL       PTSUNNY   70  61  73 SE9       29.98R
MONTEVIDEO     MOSUNNY   73  66  78 S5        29.98S
PIPESTONE      PTSUNNY   68  64  88 E8        29.96R
REDWOOD FALLS  MOSUNNY   72  64  76 SE10      29.97R
TRACY          CLOUDY    69  65  88 SE9       29.98R
WINDOM         CLOUDY    66  63  88 E13G20    29.98R
WORTHINGTON    CLOUDY    64  61  88 E17G24    29.96R
$$

IAZ001>003-012>014-020>022-031-032-NEZ013-014-SDZ071-281700-
NORTHWEST IOWA

CITY           SKY/WX    TMP DP  RH WIND       PRES   REMARKS
DENISON        CLOUDY    66  66 100 S12G18    29.83R FOG
ESTHERVILLE    RAIN      63  62  97 E15G23    29.95S FOG
LE MARS        CLOUDY    66  64  94 NE9G16    29.87R
ORANGE CITY    CLOUDY    64  64 100 E9        29.88R
SIOUX CITY     CLOUDY    67  63  87 NE6       29.84R FOG
SPENCER        LGT RAIN  65  61  87 E21G29    29.91R FOG
$$

ABBREVIATIONS USED IN REMARKS
   TC - TEMPERATURE IN CELSIUS
  WCI - WIND CHILL INDEX
   HX - HEAT INDEX
  VSB - VISIBILITY




USA.gov is the U.S. government's official web portal to all federal, state and local government web resources and services.